Location: Newark
(45.4422°N, 16.2769°E)
Time: 13:03:02
(UTC+00:00)

Courier 1B - Pass Details

Date: 14 December 2019
Orbit: 962 x 1209 km, 28.3° (Epoch: 17 January)

Event Time Altitude Azimuth Distance (km) Brightness Sun altitude
Rises 22:03:24 0° 249° (WSW) 3,948 - -65.9°
Reaches altitude 10° 22:07:15 10° 230° (SW) 3,033 - -66.2°
Maximum altitude 22:11:46 17° 193° (SSW) 2,583 - -66.5°
Drops below altitude 10° 22:16:22 10° 156° (SSE) 3,111 - -66.8°
Sets 22:20:25 0° 137° (SE) 4,094 - -67.0°
